This is the latest recevied weather packets stored in our database for station/object EA5DFV. If no packets are shown the sender has not sent any weather packets the latest 10 day(s).
| Time | Temp. | Humidity | Pressure | Rain* | Wind** | Luminosity | Snow |
|---|---|---|---|---|---|---|---|
| 1777545204 | 23.89° C | 63% | 1015.8 hPa | 0 mm | - | 844 W/m² | - |
| 1777544915 | 24.44° C | 63% | 1015.9 hPa | 0 mm | - | 842 W/m² | - |
| 1777544315 | 23.89° C | 63% | 1015.8 hPa | 0 mm | - | 816 W/m² | - |
| 1777544006 | 23.89° C | 64% | 1015.8 hPa | 0 mm | - | 812 W/m² | - |
| 1777543698 | 23.89° C | 64% | 1015.9 hPa | 0 mm | - | 796 W/m² | - |
| 1777543403 | 23.89° C | 65% | 1015.9 hPa | 0 mm | - | 788 W/m² | - |
| 1777543097 | 23.89° C | 66% | 1015.9 hPa | 0 mm | - | 770 W/m² | - |
| 1777542810 | 23.89° C | 64% | 1015.9 hPa | 0 mm | - | 766 W/m² | - |
| 1777542503 | 23.33° C | 67% | 1015.9 hPa | 0 mm | - | 752 W/m² | - |
| 1777542214 | 23.33° C | 67% | 1015.9 hPa | 0 mm | - | 740 W/m² | - |
| 1777541904 | 22.78° C | 68% | 1015.9 hPa | 0 mm | - | 733 W/m² | - |
| 1777541615 | 22.78° C | 67% | 1015.9 hPa | 0 mm | - | 715 W/m² | - |
| 1777541306 | 22.78° C | 66% | 1015.9 hPa | 0 mm | - | 705 W/m² | - |
| 1777540999 | 22.78° C | 66% | 1015.9 hPa | 0 mm | - | 693 W/m² | - |
| 1777540709 | 22.78° C | 67% | 1015.9 hPa | 0 mm | - | 689 W/m² | - |
| 1777540406 | 22.22° C | 68% | 1015.9 hPa | 0 mm | - | 684 W/m² | - |
| 1777540100 | 22.22° C | 68% | 1015.9 hPa | 0 mm | - | 664 W/m² | - |
| 1777539810 | 22.22° C | 69% | 1015.9 hPa | 0 mm | - | 647 W/m² | - |
| 1777539501 | 21.67° C | 70% | 1015.9 hPa | 0 mm | - | 635 W/m² | - |
| 1777539215 | 21.67° C | 71% | 1015.9 hPa | 0 mm | - | 612 W/m² | - |
| 1777538908 | 21.11° C | 70% | 1015.8 hPa | 0 mm | - | 613 W/m² | - |
| 1777538618 | 21.11° C | 72% | 1015.7 hPa | 0 mm | - | 589 W/m² | - |
| 1777538309 | 21.11° C | 72% | 1015.6 hPa | 0 mm | - | 617 W/m² | - |
| 1777538004 | 20.56° C | 72% | 1015.7 hPa | 0 mm | - | 603 W/m² | - |
| 1777537714 | 20.56° C | 74% | 1015.7 hPa | 0 mm | - | 573 W/m² | - |
* Rain latest hour (hover to see other rain measurements)
** Current wind speed in m/s (hover to see current wind gust speed)